Location: Newark
(35.8833°N, 14.5000°E)
Time: 05:20:19
(UTC+00:00)

NOAA 15 - Pass Details

Date: 28 May 2019
Orbit: 798 x 812 km, 98.7° (Epoch: 18 June)

Event Time Altitude Azimuth Distance (km) Brightness Sun altitude
Rises 18:55:54 0° 217° (SW) 3,301 7.8 -8.8°
Reaches altitude 10° 18:59:58 10° 248° (WSW) 2,380 7.5 -9.4°
Maximum altitude 19:01:47 12° 269° (W) 2,265 7.8 -9.7°
Drops below altitude 10° 19:03:37 10° 289° (WNW) 2,389 8.4 -10.0°
Sets 19:07:45 0° 321° (NW) 3,330 9.6 -10.7°
